Погода в Моссел-Бей

ЮАР     34°10′57″S   22°08′44″E
темп.,
°C
ветер,
м/с
пор.,
м/с
влажн.,
%
обл.,
%
осадки,
мм/ч
давл.,
гПа
погр.,
м
10 апреля, сб
сб1023:00+18св228591 0.0 101722
02:00+18св118590 0.0 101615
05:00+18в2287100 0.0 1016102
08:00+18всв2387100 0.0 1016150
11:00+18в2282100 0.0 1016118
14:00+19вюв2283100 0.0 1014119
17:00+19вюв3484100 0.0 1015103
20:00+18всв3388100 0.0 101667
11 апреля, вс
вс1123:00+18св3387100 0.0 101760
02:00+18всв2286100 0.0 101615
05:00+18юв2285100 0.0 101715
08:00+18вюв1185100 0.0 101815
11:00+19всв1182100 0.0 102025
14:00+19юв3382100 0.0 1019154
17:00+19вюв2285100 0.0 102141
20:00+19в3388100 0.0 102241
12 апреля, пн
пн1223:00+18всв4590100 0.0 1022104
02:00+18в4589100 0.0 1021161
05:00+18в4690100 0.0 1021201
08:00+18всв4690100 0.0 1021204
11:00+18вюв459196 0.0 1021147
14:00+19вюв3490100 0.0 1019138
17:00+19в2387100 0.0 101969
20:00+19юв228896 0.0 102116
13 апреля, вт
вт1323:00+19юв119394 0.0 102116
02:00+19вюв019455 0.0 102112
05:00+19вюв119277 0.1 102011
08:00+19в119074 0.1 102111
11:00+19в33897 0.0 102057
14:00+19вюв238912 0.0 1018147
17:00+18всв239022 0.0 101875
20:00+18в22905 0.0 101926
14 апреля, ср
ср1423:00+18всв11900 0.0 101927
02:00+18ююз11880 0.0 101914
05:00+18з11870 0.0 101812
08:00+19зюз11865 0.0 101911
11:00+19ююз3384100 0.0 101946
14:00+19ююз4586100 0.0 1019127
17:00+19юз348662 0.0 101994
20:00+19з3389100 0.1 102234